East Swanzey, NH

2:21 AM EDT on September 26, 2016 (GMT -0400)
Dillant-Hopkins

Weather History for KEEN - February, 2012

Change the Weather History Date:

Sunday, February 26, 2012

  Actual Average Record
Temperature  
Mean Temperature 28 °F -  
Max Temperature 35 °F 35 °F 65 °F (1957)
Min Temperature 21 °F 15 °F -15 °F (1950)
Degree Days  
Heating Degree Days 37    
Moisture  
Dew Point 5 °F    
Average Humidity 38    
Maximum Humidity 59    
Minimum Humidity 22    
Precipitation  
Precipitation 0.00 in - - ()
Sea Level Pressure  
Sea Level Pressure 30.24 in    
Wind  
Wind Speed 9 mph (WNW)    
Max Wind Speed 16 mph    
Max Gust Speed 26 mph    
Visibility 10 miles    
Events      
Averages and records for this station are not official NWS values.
T = Trace of Precipitation, MM = Missing Value Source: NWS Daily Summary

Daily Weather History Graph

Daily Weather History Graph

Search for Another Location

Airport or City:

Trip Planner

Search our weather history database for the weather conditions in past years. The results will help you decide how hot, cold, wet, or windy it might be!

Date:

Astronomy

Feb. 26, 2012 Rise Set
Actual Time 6:30 AM EST 5:34 PM EST
Civil Twilight 6:02 AM EST 6:02 PM EST
Nautical Twilight 5:29 AM EST 6:35 PM EST
Astronomical Twilight 4:56 AM EST 7:08 PM EST
Moon 8:15 AM EST 10:38 PM EST
Length of Visible Light 12h 00m
Length of Day
11h 03m
Waxing Crescent, 20% of the Moon is Illuminated
Feb 26
Waxing Crescent
Feb 29
First Quarter
Mar 8
Full
Mar 14
Last Quarter
Mar 22
New

Hourly Weather History & Observations

Time (EST) Temp. Windchill Dew Point Humidity Pressure Visibility Wind Dir Wind Speed Gust Speed Precip Events Conditions
12:15 AM 26.6 °F 15.7 °F 10.4 °F 51% 29.85 in 10.0 mi NNW 12.7 mph 23.0 mph N/A   Clear
12:35 AM 26.6 °F 16.8 °F 10.4 °F 51% 29.87 in 10.0 mi NW 10.4 mph 19.6 mph N/A   Scattered Clouds
1:35 AM 24.8 °F 20.5 °F 10.4 °F 54% 29.90 in 10.0 mi WNW 3.5 mph - N/A   Clear
1:55 AM 26.6 °F 19.1 °F 10.4 °F 51% 29.92 in 10.0 mi West 6.9 mph - N/A   Clear
2:15 AM 24.8 °F 15.3 °F 8.6 °F 50% 29.93 in 10.0 mi WNW 9.2 mph - N/A   Clear
2:55 AM 24.8 °F 17.9 °F 6.8 °F 46% 29.97 in 10.0 mi NW 5.8 mph - N/A   Clear
3:15 AM 24.8 °F 17.9 °F 6.8 °F 46% 29.99 in 10.0 mi NNW 5.8 mph - N/A   Clear
3:35 AM 23.0 °F 13.1 °F 6.8 °F 50% 30.00 in 10.0 mi NNW 9.2 mph - N/A   Clear
3:55 AM 23.0 °F 13.9 °F 6.8 °F 50% 30.02 in 10.0 mi North 8.1 mph - N/A   Clear
4:35 AM 23.0 °F 14.7 °F 6.8 °F 50% 30.06 in 10.0 mi North 6.9 mph 16.1 mph N/A   Clear
4:55 AM 21.2 °F 13.6 °F 5.0 °F 50% 30.07 in 10.0 mi NNW 5.8 mph - N/A   Clear
5:15 AM 21.2 °F 13.6 °F 5.0 °F 50% 30.08 in 10.0 mi NNW 5.8 mph - N/A   Clear
5:35 AM 21.2 °F 12.6 °F 3.2 °F 46% 30.10 in 10.0 mi NNW 6.9 mph - N/A   Clear
5:55 AM 21.2 °F 10.1 °F 3.2 °F 46% 30.12 in 10.0 mi NNW 10.4 mph 16.1 mph N/A   Clear
6:15 AM 21.2 °F 11.7 °F 3.2 °F 46% 30.14 in 10.0 mi NNW 8.1 mph - N/A   Clear
7:35 AM 21.2 °F 11.7 °F 3.2 °F 46% 30.20 in 10.0 mi NNW 8.1 mph - N/A   Clear
7:55 AM 23.0 °F 13.1 °F 3.2 °F 43% 30.21 in 10.0 mi NNW 9.2 mph - N/A   Clear
8:15 AM 23.0 °F 11.1 °F 3.2 °F 43% 30.22 in 10.0 mi NNW 12.7 mph - N/A   Clear
8:55 AM 24.8 °F 15.3 °F 3.2 °F 40% 30.24 in 10.0 mi NW 9.2 mph - N/A   Clear
9:15 AM 24.8 °F 14.6 °F 3.2 °F 40% 30.24 in 10.0 mi NNW 10.4 mph 17.3 mph N/A   Clear
9:55 AM 26.6 °F 16.8 °F 5.0 °F 40% 30.24 in 10.0 mi North 10.4 mph 17.3 mph N/A   Clear
10:15 AM 28.4 °F 19.1 °F 3.2 °F 34% 30.25 in 10.0 mi North 10.4 mph - N/A   Clear
10:55 AM 28.4 °F 19.1 °F 1.4 °F 31% 30.27 in 10.0 mi WNW 10.4 mph 21.9 mph N/A   Clear
11:15 AM 28.4 °F 18.0 °F 1.4 °F 31% 30.27 in 10.0 mi WNW 12.7 mph 20.7 mph N/A   Clear
11:35 AM 30.2 °F 19.8 °F 3.2 °F 32% 30.28 in 10.0 mi West 13.8 mph 20.7 mph N/A   Clear
11:55 AM 30.2 °F 20.2 °F 1.4 °F 29% 30.28 in 10.0 mi West 12.7 mph 21.9 mph N/A   Clear
12:15 PM 30.2 °F 20.8 °F 1.4 °F 29% 30.28 in 10.0 mi WNW 11.5 mph 20.7 mph N/A   Clear
12:35 PM 32.0 °F 23.0 °F -0.4 °F 25% 30.28 in 10.0 mi NW 11.5 mph 21.9 mph N/A   Clear
12:55 PM 32.0 °F 21.6 °F -0.4 °F 25% 30.26 in 10.0 mi West 15.0 mph 24.2 mph N/A   Clear
1:15 PM 33.8 °F 23.5 °F 1.4 °F 25% 30.27 in 10.0 mi NW 16.1 mph 26.5 mph N/A   Clear
1:35 PM 33.8 °F 24.8 °F -0.4 °F 23% 30.27 in 10.0 mi NNW 12.7 mph 20.7 mph N/A   Clear
1:55 PM 33.8 °F 25.3 °F 1.4 °F 25% 30.27 in 10.0 mi WNW 11.5 mph 20.7 mph N/A   Clear
2:35 PM 33.8 °F 27.0 °F -0.4 °F 23% 30.29 in 10.0 mi West 8.1 mph 18.4 mph N/A   Clear
2:55 PM 35.6 °F 27.1 °F 1.4 °F 24% 30.29 in 10.0 mi NW 12.7 mph 17.3 mph N/A   Clear
3:15 PM 35.6 °F 27.5 °F -0.4 °F 22% 30.30 in 10.0 mi NW 11.5 mph 17.3 mph N/A   Clear
3:35 PM 35.6 °F 26.6 °F -0.4 °F 22% 30.30 in 10.0 mi NW 13.8 mph 19.6 mph N/A   Clear
3:55 PM 35.6 °F 29.2 °F -0.4 °F 22% 30.31 in 10.0 mi WNW 8.1 mph 16.1 mph N/A   Clear
4:15 PM 35.6 °F 28.0 °F 1.4 °F 24% 30.31 in 10.0 mi NW 10.4 mph - N/A   Clear
4:35 PM 35.6 °F 28.0 °F 1.4 °F 24% 30.32 in 10.0 mi WNW 10.4 mph - N/A   Clear
4:55 PM 35.6 °F 29.2 °F 1.4 °F 24% 30.32 in 10.0 mi NW 8.1 mph - N/A   Clear
5:35 PM 33.8 °F 27.7 °F 3.2 °F 28% 30.34 in 10.0 mi WSW 6.9 mph - N/A   Clear
5:55 PM 32.0 °F 26.4 °F 3.2 °F 30% 30.35 in 10.0 mi WSW 5.8 mph - N/A   Clear
6:15 PM 30.2 °F 24.3 °F 5.0 °F 34% 30.36 in 10.0 mi SSW 5.8 mph - N/A   Clear
6:35 PM 30.2 °F 24.3 °F 6.8 °F 37% 30.37 in 10.0 mi South 5.8 mph - N/A   Clear
6:55 PM 30.2 °F 23.4 °F 6.8 °F 37% 30.37 in 10.0 mi SW 6.9 mph - N/A   Clear
7:15 PM 30.2 °F 24.3 °F 6.8 °F 37% 30.37 in 10.0 mi SW 5.8 mph - N/A   Clear
7:55 PM 30.2 °F 23.4 °F 6.8 °F 37% 30.38 in 10.0 mi WSW 6.9 mph - N/A   Clear
8:15 PM 30.2 °F 22.6 °F 8.6 °F 40% 30.39 in 10.0 mi West 8.1 mph 16.1 mph N/A   Clear
8:35 PM 30.2 °F 24.3 °F 8.6 °F 40% 30.40 in 10.0 mi WSW 5.8 mph - N/A   Clear
8:55 PM 28.4 °F 23.3 °F 8.6 °F 43% 30.40 in 10.0 mi SW 4.6 mph - N/A   Clear
9:15 PM 28.4 °F 21.2 °F 8.6 °F 43% 30.41 in 10.0 mi WSW 6.9 mph - N/A   Clear
9:35 PM 28.4 °F 23.3 °F 8.6 °F 43% 30.41 in 10.0 mi SW 4.6 mph - N/A   Clear
9:55 PM 26.6 °F 22.6 °F 10.4 °F 51% 30.41 in 10.0 mi SW 3.5 mph - N/A   Clear
10:35 PM 28.4 °F 24.6 °F 8.6 °F 43% 30.41 in 10.0 mi South 3.5 mph - N/A   Clear
10:55 PM 26.6 °F 22.6 °F 10.4 °F 51% 30.41 in 10.0 mi SSW 3.5 mph - N/A   Clear
11:15 PM 28.4 °F - 8.6 °F 43% 30.40 in 10.0 mi Calm Calm - N/A   Clear
11:35 PM 26.6 °F 22.6 °F 10.4 °F 51% 30.40 in 10.0 mi South 3.5 mph - N/A   Clear
11:55 PM 24.8 °F - 12.2 °F 59% 30.41 in 10.0 mi Calm Calm - N/A   Clear